Location: Unspecified
(10.5000°N, 0.0000°E)
Time: 00:34:28
(UTC+00:00)

Envisat - Visible Passes

Search period start: 16 June 2019 00:00
Search period end: 26 June 2019 00:00
Orbit: 764 x 766 km, 98.1° (Epoch: 15 June)

Date Brightness Start Highest point End Pass type
(mag) Time Alt. Az. Time Alt. Az. Time Alt. Az.
16 Jun 3.0 18:38:33 10° SSE 18:43:36 75° ENE 18:48:39 10° N visible
17 Jun 5.5 19:42:17 10° SW 19:45:47 19° W 19:49:17 10° NW visible
18 Jun 3.8 19:04:08 10° S 19:09:04 52° W 19:13:59 10° NNW visible
20 Jun 5.1 19:30:26 10° SSW 19:34:33 25° W 19:38:41 10° NW visible
21 Jun 3.3 18:52:48 10° S 18:57:51 72° WSW 19:02:54 10° NNW visible
22 Jun 5.8 19:58:11 10° WSW 20:00:04 12° W 20:01:56 10° WNW visible
23 Jun 4.6 19:18:46 10° SSW 19:23:19 34° W 19:27:53 10° NW visible
24 Jun 3.0 18:41:33 10° SSE 18:46:38 84° ENE 18:51:43 10° N visible
25 Jun 5.6 19:45:40 10° SW 19:48:49 17° W 19:51:59 10° WNW visible
